CW3699 Weather Reports


Display with metric or nautical units.
time (UTC)temp
F
wind
direction
speed
MPH
gust
MPH
rain 1hr
in
rain 24hr
in
rain mn
in
humidity
%
barometer
mb
20260903013411 66 154 0.0 1.0 0.00 0.02 0.02 91 1013.5
20260903012927 66 50 1.0 1.0 0.00 0.02 0.02 91 1013.7
20260903012412 66 124 0.0 2.0 0.00 0.02 0.02 91 1013.7
20260903004415 68 85 0.0 1.0 0.00 0.02 0.02 88 1013.1
20260903003428 69 98 0.0 1.0 0.00 0.02 0.02 87 1012.9
20260903002915 69 138 0.0 1.0 0.00 0.02 0.02 88 1012.9
20260903002410 69 134 0.0 1.0 0.00 0.02 0.02 87 1012.8
20260903001909 69 109 0.0 1.0 0.00 0.02 0.02 87 1012.8
20260903000910 69 135 0.0 2.0 0.00 0.02 0.02 87 1012.8
20260903000410 69 135 0.0 2.0 0.00 0.02 0.02 87 1012.9
20260902235410 70 171 0.0 3.0 0.00 0.02 0.02 86 1012.8
20260902234909 70 144 0.0 2.0 0.00 0.02 0.02 85 1012.7
20260902234415 70 158 0.0 2.0 0.00 0.02 0.02 85 1012.8
20260902233910 70 143 0.0 2.0 0.00 0.02 0.02 85 1012.7
20260902233410 70 133 0.0 2.0 0.00 0.02 0.02 84 1012.8
20260902232915 71 171 1.0 2.0 0.00 0.02 0.02 84 1012.7
20260902232409 71 182 1.0 2.0 0.00 0.02 0.02 84 1012.8
20260902231909 71 134 0.0 2.0 0.00 0.02 0.02 84 1012.8
20260902231417 71 127 0.0 2.0 0.00 0.02 0.02 83 1012.7
20260902230908 71 152 0.0 2.0 0.00 0.02 0.02 82 1012.8
20260902230408 71 145 1.0 2.0 0.00 0.02 0.02 82 1012.8
20260902225425 72 119 0.0 2.0 0.00 0.02 0.02 82 1012.8
20260902224910 72 164 0.0 2.0 0.00 0.02 0.02 82 1012.8
20260902224410 72 165 1.0 2.0 0.00 0.02 0.02 82 1012.7
20260902223910 72 122 1.0 2.0 0.00 0.02 0.02 81 1012.6
20260902223409 72 57 1.0 2.0 0.00 0.02 0.02 82 1012.6
20260902222916 72 94 0.0 2.0 0.00 0.02 0.02 81 1012.6
20260902222410 72 135 0.0 2.0 0.00 0.02 0.02 81 1012.6
20260902221910 72 141 0.0 1.0 0.00 0.02 0.02 82 1012.6
20260902221408 73 141 0.0 2.0 0.00 0.02 0.02 81 1012.6
20260902220909 73 278 0.0 1.0 0.00 0.02 0.02 81 1012.7
20260902220410 73 148 0.0 2.0 0.00 0.02 0.02 80 1012.7
20260902215916 73 128 0.0 1.0 0.00 0.02 0.02 80 1012.6
20260902215409 74 30 0.0 1.0 0.00 0.02 0.02 79 1012.7
20260902214909 74 77 0.0 1.0 0.00 0.02 0.02 78 1012.7
20260902214409 74 57 0.0 1.0 0.00 0.02 0.02 77 1012.8
20260902213908 74 137 0.0 1.0 0.00 0.02 0.02 76 1012.7
20260902213409 74 70 0.0 2.0 0.00 0.02 0.02 76 1012.7
20260902212915 74 11 0.0 2.0 0.00 0.02 0.02 77 1012.7
20260902212409 75 13 1.0 2.0 0.00 0.02 0.02 76 1012.6
20260902211910 75 26 1.0 2.0 0.00 0.02 0.02 76 1012.7
20260902211415 75 0 0.0 2.0 0.00 0.02 0.02 76 1012.7
20260902210909 75 351 0.0 2.0 0.00 0.02 0.02 76 1012.7
20260902210409 75 41 0.0 1.0 0.00 0.02 0.02 75 1012.7
20260902205915 76 76 0.0 2.0 0.00 0.02 0.02 75 1012.7
20260902205410 76 136 0.0 1.0 0.00 0.02 0.02 74 1012.6
20260902204909 76 35 0.0 2.0 0.00 0.02 0.02 74 1012.6
20260902204415 76 2 1.0 2.0 0.00 0.02 0.02 75 1012.6
20260902203909 77 358 1.0 2.0 0.00 0.02 0.02 73 1012.7
20260902203409 77 20 1.0 3.0 0.00 0.02 0.02 73 1012.8
20260902202909 78 16 1.0 3.0 0.00 0.02 0.02 72 1012.8
20260902202410 78 8 0.0 2.0 0.00 0.02 0.02 73 1013.0
20260902201910 77 4 0.0 1.0 0.00 0.02 0.02 73 1013.1
20260902201410 78 11 0.0 1.0 0.00 0.02 0.02 73 1013.1
20260902200409 78 12 1.0 3.0 0.00 0.02 0.02 72 1013.1
20260902195909 78 12 1.0 2.0 0.00 0.02 0.02 71 1013.2
20260902195410 78 18 0.0 2.0 0.00 0.02 0.02 73 1013.4
20260902194909 78 30 0.0 2.0 0.00 0.02 0.02 74 1013.4
20260902194409 78 12 0.0 2.0 0.00 0.02 0.02 73 1013.4
20260902193910 78 100 0.0 2.0 0.00 0.02 0.02 75 1013.6
20260902193408 78 59 0.0 1.0 0.00 0.02 0.02 73 1013.7
20260902192909 78 75 0.0 2.0 0.00 0.02 0.02 75 1013.8
20260902192409 78 69 1.0 3.0 0.00 0.02 0.02 76 1013.8
20260902191910 78 246 0.0 2.0 0.00 0.02 0.02 74 1013.7
20260902191409 78 33 0.0 3.0 0.00 0.02 0.02 75 1013.8
20260902190909 78 59 0.0 2.0 0.00 0.02 0.02 75 1013.9
20260902190410 77 165 1.0 2.0 0.00 0.02 0.02 75 1013.9
20260902185409 77 253 0.0 2.0 0.00 0.02 0.02 75 1013.7
20260902184409 76 123 0.0 2.0 0.00 0.02 0.02 76 1013.6
20260902183909 76 115 0.0 2.0 0.00 0.02 0.02 76 1013.6
20260902183409 76 32 0.0 2.0 0.00 0.02 0.02 77 1013.7
20260902182909 76 54 0.0 2.0 0.00 0.02 0.02 77 1013.7
20260902182409 76 193 0.0 3.0 0.00 0.02 0.02 78 1013.7
20260902181908 75 123 0.0 2.0 0.00 0.02 0.02 80 1013.7
20260902181409 75 123 0.0 1.0 0.00 0.02 0.02 83 1013.6
20260902180909 74 163 0.0 1.0 0.00 0.02 0.02 83 1013.4
20260902175415 74 36 0.0 2.0 0.00 0.02 0.02 83 1013.1
20260902174908 74 25 0.0 2.0 0.00 0.02 0.02 83 1013.1
20260902174408 74 23 0.0 2.0 0.00 0.02 0.02 81 1013.2
20260902173914 75 52 0.0 2.0 0.00 0.02 0.02 80 1013.2
20260902173410 75 204 0.0 2.0 0.00 0.02 0.02 82 1013.3
20260902172909 75 110 0.0 2.0 0.00 0.02 0.02 82 1013.4
20260902172415 75 45 1.0 3.0 0.00 0.02 0.02 84 1013.5
20260902171910 74 113 0.0 2.0 0.00 0.02 0.02 85 1013.5
20260902171409 73 87 0.0 1.0 0.00 0.02 0.02 88 1013.5
20260902170916 73 195 0.0 2.0 0.00 0.02 0.02 85 1013.3
20260902170408 73 53 1.0 2.0 0.00 0.02 0.02 83 1013.4
20260902165412 72 40 0.0 2.0 0.00 0.02 0.02 86 1013.0
20260902164409 71 122 0.0 2.0 0.00 0.02 0.02 87 1013.2
20260902163915 71 38 1.0 2.0 0.00 0.02 0.02 89 1013.3
20260902163409 70 149 0.0 2.0 0.00 0.02 0.02 92 1013.2
20260902162411 70 331 0.0 2.0 0.00 0.02 0.02 93 1013.3
20260902161909 69 70 0.0 1.0 0.00 0.02 0.02 93 1013.3
20260902161408 69 173 0.0 2.0 0.00 0.02 0.02 95 1013.2
20260902160909 69 128 1.0 2.0 0.00 0.02 0.02 95 1013.4
20260902160408 69 99 1.0 2.0 0.00 0.02 0.02 96 1013.5
20260902155409 69 161 1.0 2.0 0.00 0.02 0.02 97 1013.2
20260902154909 69 166 1.0 2.0 0.00 0.02 0.02 97 1013.2
20260902154409 68 79 1.0 2.0 0.00 0.02 0.02 97 1013.5
20260902153909 68 132 1.0 2.0 0.00 0.02 0.02 97 1013.5
20260902153409 68 119 1.0 2.0 0.00 0.02 0.02 97 1013.7
20260902152909 68 97 1.0 3.0 0.00 0.02 0.02 97 1013.9
20260902152410 68 194 1.0 2.0 0.00 0.02 0.02 97 1013.8
20260902151909 68 160 1.0 3.0 0.00 0.02 0.02 97 1014.0
20260902150909 69 184 1.0 2.0 0.00 0.02 0.02 98 1013.2
20260902150409 69 209 1.0 2.0 0.00 0.02 0.02 98 1013.2
20260902145908 69 208 1.0 2.0 0.01 0.02 0.02 98 1013.0
20260902145409 68 251 1.0 2.0 0.01 0.02 0.02 98 1012.4
20260902144909 68 139 1.0 2.0 0.01 0.02 0.02 98 1012.5
20260902144409 68 51 1.0 2.0 0.01 0.02 0.02 98 1012.5
20260902142909 67 228 1.0 2.0 0.02 0.02 0.02 98 1011.8
20260902142409 66 91 1.0 2.0 0.02 0.02 0.02 97 1011.3
20260902141909 66 174 1.0 2.0 0.02 0.02 0.02 97 1011.3
20260902141408 66 11 0.0 2.0 0.02 0.02 0.02 97 1011.1
20260902140908 66 73 0.0 2.0 0.02 0.02 0.02 97 1012.0
20260902140409 66 142 1.0 2.0 0.02 0.02 0.02 97 1012.8
20260902135409 67 82 1.0 2.0 0.01 0.01 0.01 97 1013.6
20260902134908 67 69 1.0 2.0 0.01 0.01 0.01 97 1014.1
20260902134409 67 116 0.0 2.0 0.01 0.01 0.01 97 1014.3
20260902133908 67 146 1.0 3.0 0.00 0.00 0.00 97 1014.7
20260902132908 68 214 0.0 2.0 0.00 0.00 0.00 97 1014.9
20260902132410 68 110 0.0 1.0 0.00 0.00 0.00 97 1014.9
20260902131909 68 109 0.0 2.0 0.00 0.00 0.00 98 1014.8
20260902131410 68 119 0.0 1.0 0.00 0.00 0.00 98 1014.7
20260902130909 68 128 0.0 2.0 0.00 0.00 0.00 98 1014.6
20260902125916 68 72 0.0 1.0 0.00 0.00 0.00 98 1014.6
20260902125408 68 128 0.0 1.0 0.00 0.00 0.00 98 1014.5
20260902123908 68 83 0.0 1.0 0.00 0.00 0.00 98 1014.2
20260902123409 68 75 0.0 2.0 0.00 0.00 0.00 98 1014.0
20260902122909 68 114 0.0 2.0 0.00 0.00 0.00 98 1013.7
20260902122408 68 115 0.0 1.0 0.00 0.00 0.00 98 1013.5
20260902121909 68 136 0.0 1.0 0.00 0.00 0.00 98 1013.4
20260902121409 68 117 0.0 1.0 0.00 0.00 0.00 98 1013.2
20260902115909 67 134 0.0 1.0 0.00 0.00 0.00 98 1012.9
20260902115409 67 102 0.0 1.0 0.00 0.00 0.00 98 1012.6
20260902114909 67 123 0.0 1.0 0.00 0.00 0.00 98 1012.6
20260902114415 67 80 0.0 1.0 0.00 0.00 0.00 97 1012.6
20260902113909 67 92 0.0 1.0 0.00 0.00 0.00 97 1012.6
20260902112909 67 92 0.0 1.0 0.00 0.00 0.00 97 1012.5
20260902112409 67 102 0.0 1.0 0.00 0.00 0.00 97 1012.7
20260902111909 67 125 0.0 1.0 0.00 0.00 0.00 97 1012.8
20260902111415 67 132 0.0 1.0 0.00 0.00 0.00 97 1012.7
20260902110908 68 250 0.0 1.0 0.00 0.00 0.00 97 1012.6
20260902110409 68 60 0.0 1.0 0.00 0.00 0.00 97 1012.6
20260902105908 68 92 0.0 1.0 0.00 0.00 0.00 97 1012.6
20260902105408 68 96 0.0 1.0 0.00 0.00 0.00 97 1012.4
20260902104909 68 111 0.0 1.0 0.00 0.00 0.00 97 1012.4
20260902103909 68 152 0.0 1.0 0.00 0.00 0.00 97 1012.7
20260902103409 68 103 0.0 1.0 0.00 0.00 0.00 98 1012.6
20260902102908 68 89 0.0 1.0 0.00 0.00 0.00 98 1012.6
20260902102408 68 83 0.0 1.0 0.00 0.00 0.00 98 1012.7
20260902101909 69 128 0.0 1.0 0.00 0.00 0.00 98 1012.6
20260902101416 69 124 0.0 1.0 0.00 0.00 0.00 98 1012.5
20260902100908 69 107 0.0 1.0 0.00 0.00 0.00 98 1012.4
20260902100408 69 137 0.0 1.0 0.00 0.00 0.00 98 1012.4
20260902095408 69 65 0.0 1.0 0.00 0.00 0.00 98 1012.6
20260902094908 69 103 0.0 1.0 0.00 0.00 0.00 98 1012.4
20260902093908 69 117 0.0 1.0 0.00 0.00 0.00 98 1012.5
20260902093409 69 116 0.0 1.0 0.00 0.00 0.00 98 1012.5
20260902092909 69 106 0.0 2.0 0.00 0.00 0.00 98 1012.5
20260902092409 69 212 0.0 2.0 0.00 0.00 0.00 98 1012.4
20260902091909 68 126 0.0 1.0 0.00 0.00 0.00 98 1012.3
20260902091409 69 203 0.0 2.0 0.00 0.00 0.00 98 1012.3
20260902090909 69 128 0.0 2.0 0.00 0.00 0.00 98 1012.2
20260902090409 69 111 0.0 1.0 0.00 0.00 0.00 98 1012.2
20260902085908 69 104 0.0 1.0 0.00 0.00 0.00 98 1012.2
20260902084409 68 120 0.0 1.0 0.00 0.00 0.00 97 1012.3
20260902083909 68 125 0.0 2.0 0.00 0.00 0.00 97 1012.4
20260902083409 68 177 0.0 1.0 0.00 0.00 0.00 97 1012.3
20260902082909 68 125 0.0 1.0 0.00 0.00 0.00 97 1012.3
20260902081908 69 119 0.0 1.0 0.00 0.00 0.00 98 1012.2
20260902081409 68 118 0.0 1.0 0.00 0.00 0.00 98 1012.3
20260902080908 68 103 0.0 1.0 0.00 0.00 0.00 97 1012.2
20260902080408 68 115 0.0 0.0 0.00 0.00 0.00 98 1012.2
20260902075908 68 84 0.0 1.0 0.00 0.00 0.00 98 1012.1
20260902075408 68 92 0.0 1.0 0.00 0.00 0.00 98 1012.0
20260902074909 68 115 0.0 1.0 0.00 0.00 0.00 98 1012.0
20260902074409 68 95 0.0 1.0 0.00 0.00 0.00 98 1012.0
20260902073909 68 153 0.0 2.0 0.00 0.00 0.00 98 1012.1
20260902073409 68 124 0.0 1.0 0.00 0.00 0.00 98 1012.1
20260902072908 68 107 0.0 1.0 0.00 0.00 0.00 97 1012.1
20260902072409 68 107 0.0 1.0 0.00 0.00 0.00 97 1012.1
20260902071909 68 125 0.0 1.0 0.00 0.00 0.00 97 1012.1
20260902071408 67 107 0.0 1.0 0.00 0.00 0.00 97 1012.0
20260902070915 67 144 0.0 1.0 0.00 0.00 0.00 97 1012.1
20260902070408 67 92 0.0 1.0 0.00 0.00 0.00 97 1012.0
20260902065908 67 124 0.0 1.0 0.00 0.00 0.00 98 1012.0
20260902065408 67 92 0.0 1.0 0.00 0.00 0.00 98 1012.0
20260902064908 67 127 0.0 1.0 0.00 0.00 0.00 98 1011.9
20260902063915 67 144 0.0 1.0 0.00 0.00 0.00 97 1012.0
20260902063408 67 45 1.0 1.0 0.00 0.00 0.00 97 1011.9
20260902062408 67 85 0.0 1.0 0.00 0.00 0.00 98 1012.0
20260902061908 67 113 0.0 1.0 0.00 0.00 0.00 98 1012.0
20260902061408 66 145 0.0 1.0 0.00 0.00 0.00 97 1012.1
20260902060916 66 126 0.0 1.0 0.00 0.00 0.00 97 1012.0
20260902060408 66 165 0.0 2.0 0.00 0.00 0.00 97 1012.0
20260902055907 66 142 0.0 1.0 0.00 0.00 0.00 97 1012.0
20260902055408 66 99 1.0 2.0 0.00 0.00 0.00 97 1012.2
20260902054908 66 91 0.0 1.0 0.00 0.00 0.00 97 1012.2
20260902053409 65 76 0.0 1.0 0.00 0.00 0.00 97 1011.5
20260902052909 65 127 0.0 1.0 0.00 0.00 0.00 97 1011.4
20260902052408 65 162 0.0 1.0 0.00 0.00 0.00 97 1011.4
20260902051908 65 129 0.0 1.0 0.00 0.00 0.00 97 1011.4
20260902051408 65 112 0.0 1.0 0.00 0.00 0.00 97 1011.6
20260902050409 65 97 0.0 1.0 0.00 0.00 0.00 97 1011.7
20260902045908 65 141 0.0 1.0 0.00 0.00 0.00 97 1011.7
20260902045408 65 127 0.0 1.0 0.00 0.00 0.00 97 1011.8
20260902044408 65 130 0.0 1.0 0.00 0.00 0.00 97 1011.8
20260902043908 65 122 0.0 1.0 0.00 0.00 0.00 96 1011.9
20260902043408 65 118 0.0 1.0 0.00 0.00 0.00 96 1011.9
20260902042908 65 106 0.0 1.0 0.00 0.00 0.00 96 1011.9
20260902042408 65 110 0.0 1.0 0.00 0.00 0.00 96 1012.0
20260902041907 65 122 0.0 1.0 0.00 0.00 0.00 96 1012.0
20260902041408 65 117 0.0 1.0 0.00 0.00 0.00 96 1012.0
20260902040908 65 102 0.0 1.0 0.00 0.00 0.00 96 1012.1
20260902040408 65 116 0.0 1.0 0.00 0.00 0.00 96 1012.1
20260902035407 65 103 0.0 1.0 0.00 0.00 0.00 96 1012.1
20260902034907 65 128 0.0 1.0 0.00 0.00 0.00 96 1012.2
20260902033908 65 146 0.0 1.0 0.00 0.00 0.00 96 1012.3
20260902032908 65 157 0.0 1.0 0.00 0.00 0.00 96 1012.3
20260902031908 65 138 0.0 1.0 0.00 0.00 0.00 96 1012.3
20260902031408 65 193 0.0 1.0 0.00 0.00 0.00 96 1012.4
20260902030908 66 102 0.0 1.0 0.00 0.00 0.00 96 1012.4
20260902025908 66 119 0.0 1.0 0.00 0.00 0.00 96 1012.3
20260902025408 66 93 0.0 1.0 0.00 0.00 0.00 96 1012.3
20260902024908 66 149 0.0 1.0 0.00 0.00 0.00 96 1012.3
20260902023909 66 121 0.0 1.0 0.00 0.00 0.00 96 1012.3
20260902023408 66 142 0.0 1.0 0.00 0.00 0.00 96 1012.3
20260902022908 66 117 0.0 2.0 0.00 0.00 0.00 96 1012.4
20260902022408 66 147 0.0 2.0 0.00 0.00 0.00 95 1012.4
20260902021908 66 144 1.0 2.0 0.00 0.00 0.00 96 1012.5
20260902021407 66 105 0.0 1.0 0.00 0.00 0.00 95 1012.5
20260902020908 66 143 1.0 2.0 0.00 0.00 0.00 95 1012.6
20260902020408 66 115 0.0 1.0 0.00 0.00 0.00 95 1012.6
20260902015408 67 120 0.0 1.0 0.00 0.00 0.00 95 1012.6
20260902014908 67 149 0.0 1.0 0.00 0.00 0.00 95 1012.5
20260902014408 67 135 0.0 1.0 0.00 0.00 0.00 95 1012.6
20260902013909 67 74 0.0 1.0 0.00 0.00 0.00 95 1012.6